Location: Izdebno
(52.6670°N, 16.2170°E)
Time: 12:46:56
(UTC+02:00)

A-11 Canister half - Pass Details

Date: 14 February 2023
Orbit: 1526 x 1682 km, 47.3° (Epoch: 26 March)

Event Time Altitude Azimuth Distance (km) Brightness Sun altitude
Rises 03:57:36 0° 238° (WSW) 4,694 - -30.1°
Reaches altitude 10° 04:00:44 10° 234° (SW) 3,702 - -29.7°
Exits shadow 04:06:57 42° 207° (SSW) 2,053 9.3 -28.8°
Maximum altitude 04:09:40 54° 161° (SSE) 1,799 9.2 -28.4°
Drops below altitude 10° 04:18:38 10° 88° (E) 3,713 12.0 -27.1°
Sets 04:21:46 0° 84° (E) 4,709 12.9 -26.6°
